Location: American Medical Response
(33.3472°N, 96.5511°W)
Time: 06:59:21
(UTC+00:00)

H-2A R/B - Pass Details

Date: 07 July 2022
Orbit: 577 x 651 km, 98.5° (Epoch: 07 August)

Event Time Altitude Azimuth Distance (km) Brightness Sun altitude
Rises 02:36:11 0° 14° (NNE) 2,954 5.9 -10.9°
Reaches altitude 10° 02:38:23 10° 15° (NNE) 2,048 5.0 -11.3°
Maximum altitude 02:42:52 80° 103° (ESE) 663 2.1 -12.0°
Drops below altitude 10° 02:47:21 10° 190° (S) 2,048 4.5 -12.8°
Sets 02:49:33 0° 192° (SSW) 2,954 5.3 -13.1°
